Meteo Giornale » Osservazioni meteo Spagna » Bilbao-Sondica
ore: 21:30 - Osservazioni Meteo Bilbao-Sondica
Lat. 43° 18' N Lon. 2° 56' W Alt. 42 metri s.l.m.
22 °C
Molto Nuvoloso
Temp. 24 Ore
15 °C
24 °C
Est/Nord-Est
7.4 Km/h
Dew point 16 °C
Umidità 68 %
Visibilità 10 Km
Il sole sorge alle ore 07:35
Il sole tramonta alle ore 20:47
| Data e Ora | Cielo e Fenomeni | T °C | DP °C | Um. % | Pres. hPa | Vis. km | Vento km/h | |
|---|---|---|---|---|---|---|---|---|
| Oggi h: 21:30 | Molto Nuvoloso | 22 | 16 | 68 | 1022 | 10 | E/NE 7.4 | |
| Oggi h: 21:00 | Molto Nuvoloso | 22 | 16 | 68 | 1022 | 10 | N 3.7 | |
| Oggi h: 20:30 | Molto Nuvoloso | 22 | 17 | 73 | 1022 | 10 | N/NE 9.3 | |
| Oggi h: 20:00 | Molto Nuvoloso | 23 | 17 | 68 | 1021 | 10 | N/NE 11.1 | |
| Oggi h: 19:30 | Molto Nuvoloso | 24 | 17 | 64 | 1021 | 10 | N 7.4 | |
| Oggi h: 19:00 | Molto Nuvoloso | 24 | 17 | 64 | 1021 | 10 | N/NE 7.4 | |
| Oggi h: 18:30 | Molto Nuvoloso | 24 | 17 | 64 | 1021 | 10 | N 7.4 | |
| Oggi h: 18:00 | Coperto | 24 | 17 | 64 | 1021 | 10 | N 5.5 | |
| Oggi h: 17:30 | Coperto | 24 | 17 | 64 | 1021 | 10 | E/NE 7.4 | |
| Oggi h: 17:00 | Coperto | 24 | 17 | 64 | 1021 | 10 | NE 9.3 | |
| Oggi h: 16:30 | Coperto | 24 | 16 | 60 | 1021 | 10 | N 11.1 | |
| Oggi h: 16:00 | Coperto | 24 | 16 | 60 | 1021 | 10 | N/NE 11.1 | |
| Oggi h: 15:30 | Coperto | 24 | 16 | 60 | 1021 | 10 | NE 9.3 | |
| Oggi h: 15:00 | Coperto | 24 | 17 | 64 | 1021 | 10 | E/NE 11.1 | |
| Oggi h: 14:30 | Coperto | 23 | 17 | 68 | 1021 | 10 | N 3.7 | |
| Oggi h: 14:00 | Coperto | 23 | 18 | 73 | 1021 | 10 | N/NO 7.4 | |
| Oggi h: 13:30 | Coperto | 23 | 18 | 73 | 1021 | 10 | N 5.5 | |
| Oggi h: 13:00 | Molto Nuvoloso | 23 | 18 | 73 | 1021 | 10 | N 3.7 | |
| Oggi h: 12:30 | Molto Nuvoloso | 23 | 18 | 73 | 1021 | 10 | N 5.5 | |
| Oggi h: 12:00 | Molto Nuvoloso | 23 | 18 | 73 | 1021 | 10 | N 3.7 | |
| Oggi h: 11:30 | Molto Nuvoloso | 21 | 18 | 82 | 1022 | 10 | N 1.8 | |
| Oggi h: 11:00 | Molto Nuvoloso | 21 | 19 | 88 | 1022 | 10 | N 3.7 | |
| Oggi h: 10:30 | Molto Nuvoloso | 20 | 18 | 88 | 1021 | 10 | N 1.8 | |
| Oggi h: 10:00 | Molto Nuvoloso | 19 | 18 | 93 | 1021 | 10 | N 3.7 | |
| Oggi h: 09:30 | Molto Nuvoloso | 19 | 18 | 93 | 1021 | 10 | N 0 | |
| Oggi h: 09:00 | Nuvoloso | 18 | 18 | 100 | 1021 | 10 | N 0 | |
| Oggi h: 08:30 | Molto Nuvoloso | 18 | 18 | 100 | 1021 | 10 | N 0 | |
| Oggi h: 08:00 | Molto Nuvoloso | 17 | 17 | 100 | 1021 | 8 | N 0 | |
| Oggi h: 07:48 | Molto Nuvoloso | 17 | 17 | 100 | 1021 | 6 | N 1.8 | |
| Oggi h: 07:30 | Pioviggine | 17 | 17 | 100 | 1021 | 2 | N 5.5 | |
| Oggi h: 07:25 | Pioggia | 17 | 17 | 100 | 1021 | 3 | E 9.3 | |
| Oggi h: 07:00 | Molto Nuvoloso | 17 | 17 | 100 | 1021 | 9 | N 5.5 | |
| Oggi h: 06:30 | Molto Nuvoloso | 17 | 16 | 93 | 1021 | 10 | N 1.8 | |
| Oggi h: 06:00 | Molto Nuvoloso | 17 | 16 | 93 | 1021 | 10 | N 1.8 | |
| Oggi h: 05:30 | Molto Nuvoloso | 17 | 16 | 93 | 1022 | 10 | N 5.5 | |
| Oggi h: 05:00 | Molto Nuvoloso | 16 | 16 | 100 | 1022 | 10 | N 1.8 | |
| Oggi h: 04:30 | Molto Nuvoloso | 16 | 15 | 93 | 1022 | 10 | N 1.8 | |
| Oggi h: 04:00 | Poco Nuvoloso | 15 | 15 | 100 | 1022 | 10 | N 5.5 | |
| Oggi h: 03:30 | Poco Nuvoloso | 16 | 15 | 93 | 1022 | 10 | N 1.8 | |
| Oggi h: 03:00 | Nuvoloso | 16 | 15 | 93 | 1022 | 10 | N 5.5 | |
| Oggi h: 02:30 | Poco Nuvoloso | 16 | 15 | 93 | 1023 | 10 | N 1.8 | |
| Oggi h: 02:00 | Poco Nuvoloso | 16 | 15 | 93 | 1023 | 10 | N 1.8 | |
| Oggi h: 01:30 | Molto Nuvoloso | 17 | 16 | 93 | 1023 | 10 | N 1.8 | |
| Oggi h: 01:00 | Sereno | 16 | 15 | 93 | 1023 | 10 | N 5.5 | |
| Oggi h: 00:30 | Poco Nuvoloso | 17 | 16 | 93 | 1023 | 10 | N 3.7 | |
| Oggi h: 00:00 | Poco Nuvoloso | 17 | 15 | 88 | 1023 | 10 | N 5.5 | |
| Ieri h: 23:30 | Poco Nuvoloso | 18 | 16 | 88 | 1023 | 10 | N 5.5 | |
| Ieri h: 23:00 | Poco Nuvoloso | 18 | 17 | 93 | 1023 | 10 | N 0 | |



